Location: Zagreb
(45.8000°N, 16.0000°E)
Time: 19:08:04
(UTC+01:00)

DX 1 - Pass Details

Date: 01 November 2020
Orbit: 619 x 630 km, 98.5° (Epoch: 01 December)

Event Time Altitude Azimuth Distance (km) Brightness Sun altitude
Rises 04:57:05 0° 152° (SSE) 2,886 ? -17.7°
Reaches altitude 10° 04:59:17 10° 147° (SSE) 1,983 ? -17.4°
Maximum altitude 05:03:29 53° 71° (ENE) 770 ? -16.6°
Drops below altitude 10° 05:07:42 10° 355° (N) 1,996 ? -15.9°
Sets 05:09:55 0° 351° (N) 2,907 ? -15.5°
